Wind_Speed
12 12 12 13 13 13 13 14 14 14 13 13 14 14 15 14 15 15 15 16 16 15 15 14 15 15 15 16 16 16 17 18 19 20 21 21 22 23
12 12 12 13 13 13 14 14 14 13 13 14 14 14 13 14 14 15 16 16 16 15 15 15 15 15 15 15 16 17 17 18 19 21 22 22 23 24
12 13 13 13 13 13 13 13 13 13 13 13 14 13 14 14 14 15 16 16 15 15 16 16 16 16 16 15 16 17 18 19 20 21 22 23 24 25
13 13 13 13 13 13 14 13 13 13 13 13 14 14 15 15 15 16 16 16 16 15 16 16 16 16 16 16 17 18 18 20 21 22 22 23 25 26
14 14 14 14 14 14 14 14 14 14 14 14 15 15 16 16 16 17 17 16 16 16 16 16 16 17 16 16 17 18 19 20 21 22 22 23 24 24
14 14 14 14 14 14 14 14 14 14 15 15 15 15 16 16 16 17 16 15 15 15 16 16 17 17 17 17 18 18 19 20 21 21 22 23 23 23
14 14 14 14 14 14 14 14 15 14 14 14 15 16 16 16 16 15 14 14 14 15 15 16 16 17 18 19 19 19 20 20 20 21 21 22 22 22
13 14 14 15 15 15 15 15 15 15 14 15 15 15 15 15 14 14 14 14 14 15 15 16 17 17 18 19 20 21 21 21 21 21 21 21 21 21
14 14 14 14 15 15 15 16 15 15 15 15 15 15 14 14 13 13 14 14 15 15 15 15 16 17 18 19 19 20 20 20 20 20 20 20 20 21
14 14 14 15 15 15 15 14 15 15 15 15 15 14 14 13 13 14 14 14 15 16 16 16 17 18 19 19 20 20 20 20 20 20 20 20 20 21
14 14 14 15 15 14 15 15 15 15 15 15 14 14 14 14 14 14 15 16 16 17 17 17 18 18 19 20 20 20 20 20 20 20 20 20 20 21
14 14 15 15 15 15 15 15 15 16 16 15 14 15 15 15 15 15 16 17 17 17 17 18 18 18 19 19 20 20 20 21 20 20 20 20 21 21
14 15 15 15 15 16 16 16 16 16 16 16 16 17 17 16 16 17 17 17 17 17 18 18 18 19 19 19 19 20 21 21 21 20 21 21 21 22
14 15 15 15 15 16 16 16 17 17 17 17 17 18 18 17 17 17 18 18 17 18 19 19 19 19 20 20 20 20 20 21 21 21 22 22 22 22
15 15 15 15 15 15 16 16 17 17 17 17 17 18 18 18 17 17 18 18 19 19 20 20 20 20 21 20 21 21 21 21 21 22 22 22 22 23
16 16 16 16 16 16 16 16 17 17 18 17 18 18 18 18 18 18 18 19 19 20 20 20 20 20 21 21 21 21 21 21 22 22 22 23 23 23
17 17 17 17 17 17 18 18 17 18 18 18 19 19 19 18 18 17 17 17 17 18 19 20 20 21 21 21 21 21 22 22 23 23 24 24 24 24
18 18 18 19 19 18 18 18 18 18 18 19 19 19 18 17 16 16 16 17 17 18 18 19 20 20 21 21 21 21 22 23 23 23 24 24 24 24
19 19 19 20 20 20 19 19 19 18 18 18 18 18 18 18 17 16 17 17 18 18 19 21 21 21 21 21 21 22 23 23 24 24 24 24 24 23
20 20 20 20 20 20 19 19 18 18 18 18 18 19 19 18 18 18 18 18 19 20 21 21 22 22 21 21 22 23 24 24 24 24 24 24 24 23
20 20 20 20 20 19 19 19 19 19 19 19 19 19 19 19 19 19 19 20 20 20 20 21 21 21 22 22 22 23 23 24 24 24 24 24 23 23
20 20 20 20 20 20 20 20 20 20 20 21 21 20 20 19 20 20 20 21 21 20 20 20 21 21 22 22 23 24 24 24 24 23 23 23 22 22
21 21 21 21 21 21 21 21 21 21 20 20 20 20 21 21 21 21 21 21 21 21 21 21 21 22 23 24 24 24 24 24 24 23 23 23 22 21
Wind_Direction
267 266 267 267 267 267 268 269 271 271 271 268 265 266 269 269 273 275 276 277 279 277 278 280 280 275 271 266 266 267 269 267 266 265 265 266 264 264
268 267 269 269 268 270 272 272 273 274 273 270 268 270 271 276 278 277 277 279 280 279 278 279 280 277 273 270 269 270 272 273 271 270 269 269 267 267
268 267 268 267 269 272 273 275 275 274 274 274 269 268 276 277 277 278 279 281 284 283 281 280 278 276 274 273 273 273 274 276 276 275 273 271 269 268
271 271 268 266 269 272 273 274 274 275 275 274 271 272 277 279 280 282 281 283 284 282 280 278 275 274 273 276 274 274 276 279 279 279 278 275 271 269
272 271 269 267 269 272 273 273 272 275 276 274 275 274 277 279 277 278 279 281 282 281 278 276 274 275 275 274 274 276 278 280 281 280 279 278 275 272
272 270 269 268 268 272 274 273 273 276 277 276 277 276 276 277 277 277 277 280 283 283 278 276 276 277 278 275 276 279 282 284 283 282 280 278 275 272
272 271 270 269 269 271 273 275 275 277 276 275 280 279 275 275 277 277 277 279 281 281 279 278 280 281 281 279 279 281 282 283 284 283 280 278 275 273
272 272 271 269 270 271 272 272 275 276 276 276 280 279 274 272 272 275 277 278 280 281 281 281 283 284 284 284 284 282 282 284 285 285 282 279 277 274
274 272 273 271 270 271 271 270 272 273 275 277 277 276 274 272 273 276 279 280 282 284 283 284 285 286 287 286 287 288 286 287 288 287 287 283 280 278
272 271 274 274 272 271 271 271 272 272 274 278 275 274 273 272 273 276 279 283 283 283 285 287 287 287 288 288 290 289 289 289 288 288 287 286 283 281
269 270 273 274 272 272 273 274 274 273 274 277 275 274 273 272 274 278 280 284 285 284 285 289 290 290 290 291 291 290 289 290 289 288 289 287 285 284
268 270 272 272 271 272 273 273 273 271 272 273 274 273 275 275 276 279 282 283 283 284 285 289 293 293 294 294 293 292 292 291 290 289 289 289 288 288
266 269 270 271 272 273 273 274 274 272 271 271 272 272 273 275 279 281 283 283 284 287 289 290 293 294 295 294 295 295 294 293 292 290 289 290 289 290
267 267 269 272 275 274 273 272 273 270 270 271 272 274 275 277 279 280 282 282 285 287 290 291 290 292 294 294 294 294 295 294 292 291 291 291 291 290
267 271 274 274 276 275 274 273 272 271 270 270 270 273 276 279 279 279 282 282 283 285 288 289 289 290 293 293 293 294 294 295 294 292 291 290 290 290
268 271 274 275 276 277 275 273 271 271 272 271 270 272 275 276 277 278 279 280 280 284 287 288 288 290 291 292 292 294 295 296 296 294 292 290 290 290
270 271 272 274 276 275 274 273 272 272 271 271 271 272 274 275 277 280 282 283 284 286 288 290 290 291 291 292 293 295 296 296 296 296 294 292 292 291
270 270 270 272 273 275 275 273 273 273 272 272 273 274 276 278 280 280 281 283 286 287 289 293 294 292 290 292 295 297 298 298 297 296 294 293 292 291
272 272 271 271 272 275 275 274 274 274 272 272 272 273 276 277 279 281 282 283 284 284 287 292 295 292 292 292 295 298 300 300 299 297 296 294 293 292
271 271 273 273 272 273 272 273 273 273 272 271 270 272 274 276 278 281 283 284 284 284 288 292 294 294 293 295 297 299 300 301 300 298 297 295 294 294
271 273 274 274 273 272 269 270 270 270 271 270 271 273 274 275 276 280 284 285 286 286 289 291 294 293 294 296 299 302 302 301 301 301 299 296 293 293
271 271 273 273 272 271 270 270 269 270 271 270 271 273 275 275 276 280 283 285 288 289 290 291 292 292 293 295 298 301 302 302 302 303 304 300 296 295
269 269 272 274 272 271 271 270 269 269 270 271 272 273 274 275 278 281 282 283 286 287 289 291 291 291 292 293 295 298 300 302 303 304 305 303 300 298
Height
5814 5813 5813 5813 5813 5813 5813 5813 5813 5812 5812 5811 5811 5810 5810 5809 5809 5808 5808 5807 5806 5805 5804 5803 5802 5801 5801 5801 5801 5801 5801 5800 5801 5801 5801 5801 5801 5801
5810 5810 5810 5809 5809 5809 5809 5808 5808 5808 5808 5807 5807 5806 5805 5805 5804 5804 5803 5802 5801 5800 5799 5799 5798 5797 5797 5796 5796 5796 5796 5795 5795 5795 5795 5795 5795 5795
5806 5806 5806 5805 5805 5805 5805 5804 5804 5804 5804 5803 5802 5801 5801 5800 5800 5799 5798 5797 5796 5795 5795 5794 5793 5793 5792 5792 5791 5791 5790 5790 5789 5788 5788 5787 5787 5787
5802 5802 5801 5801 5801 5801 5801 5800 5800 5799 5799 5798 5798 5797 5796 5796 5795 5794 5793 5792 5791 5791 5790 5789 5789 5788 5787 5787 5786 5785 5785 5784 5783 5782 5781 5780 5780 5779
5798 5798 5797 5797 5797 5797 5797 5796 5795 5795 5795 5794 5793 5793 5792 5791 5790 5790 5789 5788 5787 5786 5785 5784 5784 5783 5782 5781 5780 5779 5779 5778 5777 5776 5774 5773 5772 5771
5793 5793 5793 5793 5793 5793 5792 5792 5791 5791 5790 5789 5788 5788 5787 5786 5785 5785 5784 5783 5782 5781 5780 5779 5779 5778 5777 5775 5774 5774 5773 5771 5770 5769 5767 5766 5765 5764
5789 5789 5788 5788 5788 5788 5788 5787 5787 5786 5785 5785 5784 5783 5782 5781 5780 5779 5779 5778 5778 5777 5776 5775 5774 5773 5772 5770 5769 5768 5767 5765 5764 5762 5761 5759 5758 5757
5785 5784 5784 5784 5784 5783 5783 5783 5782 5781 5781 5780 5779 5777 5776 5776 5775 5775 5775 5774 5774 5773 5772 5771 5769 5768 5767 5765 5764 5762 5761 5760 5758 5756 5754 5753 5752 5751
5780 5780 5780 5779 5779 5779 5779 5778 5778 5776 5776 5775 5774 5773 5772 5771 5771 5771 5770 5770 5769 5768 5767 5766 5765 5763 5762 5760 5758 5757 5755 5753 5752 5750 5748 5747 5746 5745
5776 5775 5775 5775 5774 5774 5774 5773 5773 5772 5771 5770 5770 5769 5768 5767 5767 5767 5766 5765 5764 5763 5762 5762 5760 5758 5757 5755 5753 5751 5749 5748 5746 5744 5743 5741 5740 5738
5771 5771 5771 5770 5770 5769 5769 5769 5768 5768 5767 5766 5765 5765 5764 5763 5763 5762 5761 5761 5760 5759 5757 5756 5755 5753 5752 5750 5747 5746 5744 5742 5741 5739 5737 5735 5734 5732
5766 5766 5766 5766 5765 5765 5765 5764 5764 5763 5763 5762 5761 5760 5760 5759 5758 5758 5757 5756 5755 5754 5753 5751 5750 5748 5746 5744 5742 5740 5738 5737 5735 5733 5731 5729 5728 5726
5761 5762 5761 5761 5760 5760 5760 5759 5759 5759 5758 5757 5757 5756 5755 5755 5754 5753 5752 5751 5750 5749 5748 5746 5744 5742 5740 5739 5737 5735 5733 5731 5729 5727 5725 5724 5722 5719
5757 5757 5757 5756 5756 5755 5755 5754 5754 5753 5753 5752 5752 5751 5751 5750 5749 5748 5747 5746 5745 5744 5742 5740 5739 5737 5735 5733 5732 5730 5727 5725 5723 5721 5719 5717 5715 5713
5753 5753 5752 5751 5751 5750 5750 5749 5749 5748 5748 5747 5747 5746 5745 5744 5744 5743 5742 5741 5740 5738 5736 5735 5733 5732 5730 5728 5726 5724 5722 5720 5717 5715 5713 5710 5708 5706
5748 5748 5747 5746 5746 5746 5745 5744 5743 5743 5742 5742 5741 5741 5740 5739 5738 5737 5736 5735 5734 5733 5731 5729 5727 5726 5724 5722 5720 5718 5716 5713 5711 5708 5706 5704 5702 5699
5743 5743 5742 5741 5741 5741 5740 5739 5738 5738 5737 5736 5736 5735 5734 5734 5733 5731 5730 5729 5728 5727 5725 5724 5722 5720 5718 5716 5714 5712 5709 5707 5704 5701 5699 5697 5695 5693
5737 5737 5737 5736 5736 5735 5734 5733 5732 5732 5731 5731 5730 5730 5729 5728 5727 5726 5725 5724 5723 5721 5720 5718 5716 5714 5712 5710 5708 5705 5703 5700 5697 5694 5692 5690 5688 5685
5731 5730 5730 5730 5730 5729 5728 5727 5727 5726 5725 5725 5725 5724 5724 5723 5722 5721 5720 5719 5717 5716 5714 5712 5710 5708 5706 5705 5702 5699 5696 5693 5690 5688 5685 5683 5680 5678
5724 5724 5723 5723 5722 5722 5721 5721 5721 5720 5720 5720 5719 5719 5718 5718 5717 5716 5715 5713 5712 5710 5709 5707 5705 5702 5701 5699 5696 5693 5690 5687 5684 5681 5678 5675 5673 5671
5717 5717 5717 5716 5716 5715 5715 5715 5715 5714 5714 5714 5714 5713 5713 5712 5711 5710 5709 5708 5706 5705 5703 5701 5699 5697 5694 5692 5690 5688 5684 5681 5677 5674 5671 5668 5666 5664
5710 5710 5710 5709 5709 5709 5708 5708 5708 5708 5708 5708 5707 5707 5707 5706 5705 5704 5703 5702 5700 5699 5697 5695 5693 5691 5689 5687 5684 5682 5679 5675 5672 5668 5665 5662 5660 5658
5703 5703 5703 5703 5702 5702 5702 5701 5701 5701 5701 5701 5701 5700 5700 5699 5698 5697 5696 5695 5694 5693 5691 5689 5687 5685 5682 5680 5678 5675 5672 5669 5666 5663 5660 5657 5655 5653